| time (UTC) | temp F | wind direction | speed MPH | gust MPH | rain 1hr in | rain 24hr in | rain mn in | humidity % | barometer mb |
| 20260504173045 | 55 | 301 | 18.0 | 26.0 | 0.00 | 0.00 | 0.00 | 46 | 1011.3 |
| 20260504171545 | 55 | 313 | 20.0 | 31.0 | 0.00 | 0.00 | 0.00 | 46 | 1011.1 |
| 20260504120109 | 47 | 336 | 9.0 | 14.0 | 0.00 | 0.00 | 0.00 | 66 | 1007.3 |
| 20260504081547 | 48 | 208 | 7.0 | 9.0 | 0.00 | 0.00 | 0.00 | 80 | 1004.4 |
| 20260504044546 | 54 | 217 | 8.0 | 11.0 | 0.00 | 0.00 | 0.00 | 67 | 1006.1 |
| 20260504043108 | 54 | 202 | 9.0 | 12.0 | 0.00 | 0.00 | 0.00 | 66 | 1006.0 |
| 20260504041546 | 55 | 192 | 7.0 | 9.0 | 0.00 | 0.00 | 0.00 | 64 | 1006.0 |
| 20260504040048 | 56 | 214 | 8.0 | 13.0 | 0.00 | 0.00 | 0.00 | 61 | 1006.4 |
| 20260504034551 | 57 | 215 | 8.0 | 12.0 | 0.00 | 0.00 | 0.00 | 60 | 1006.4 |
| 20260504033046 | 57 | 209 | 8.0 | 12.0 | 0.00 | 0.00 | 0.00 | 59 | 1006.4 |
| 20260504031550 | 58 | 211 | 8.0 | 13.0 | 0.00 | 0.00 | 0.00 | 58 | 1006.4 |
| 20260504024547 | 59 | 209 | 8.0 | 14.0 | 0.00 | 0.00 | 0.00 | 55 | 1006.4 |
| 20260504023047 | 60 | 184 | 8.0 | 10.0 | 0.00 | 0.00 | 0.00 | 53 | 1006.4 |
| 20260504021548 | 61 | 208 | 7.0 | 13.0 | 0.00 | 0.00 | 0.00 | 50 | 1006.5 |
| 20260504020054 | 63 | 205 | 9.0 | 14.0 | 0.00 | 0.00 | 0.00 | 46 | 1006.6 |
| 20260504014545 | 64 | 196 | 8.0 | 12.0 | 0.00 | 0.00 | 0.00 | 44 | 1006.7 |
| 20260504013050 | 66 | 198 | 8.0 | 15.0 | 0.00 | 0.00 | 0.00 | 41 | 1006.8 |
| 20260504011546 | 67 | 211 | 10.0 | 18.0 | 0.00 | 0.00 | 0.00 | 39 | 1007.1 |
| 20260504010056 | 68 | 201 | 11.0 | 16.0 | 0.00 | 0.00 | 0.00 | 39 | 1007.3 |
| 20260504004547 | 68 | 223 | 11.0 | 18.0 | 0.00 | 0.00 | 0.00 | 38 | 1007.5 |
| 20260504003045 | 69 | 222 | 15.0 | 21.0 | 0.00 | 0.00 | 0.00 | 38 | 1007.7 |
| 20260504001545 | 69 | 219 | 17.0 | 22.0 | 0.00 | 0.00 | 0.00 | 37 | 1007.8 |
| 20260504000046 | 69 | 213 | 13.0 | 19.0 | 0.00 | 0.00 | 0.00 | 36 | 1008.1 |
| 20260503234544 | 70 | 222 | 13.0 | 22.0 | 0.00 | 0.00 | 0.00 | 34 | 1008.3 |
| 20260503233050 | 70 | 228 | 16.0 | 19.0 | 0.00 | 0.00 | 0.00 | 33 | 1008.7 |
| 20260503231550 | 70 | 240 | 13.0 | 20.0 | 0.00 | 0.00 | 0.00 | 32 | 1008.6 |
| 20260503230058 | 69 | 219 | 9.0 | 17.0 | 0.00 | 0.00 | 0.00 | 35 | 1008.8 |
| 20260503224542 | 67 | 221 | 13.0 | 21.0 | 0.00 | 0.00 | 0.00 | 36 | 1008.9 |
| 20260503223055 | 64 | 244 | 18.0 | 28.0 | 0.00 | 0.00 | 0.00 | 49 | 1009.2 |
| 20260503221550 | 63 | 227 | 23.0 | 39.0 | 0.00 | 0.00 | 0.00 | 48 | 1009.9 |
| 20260503220050 | 65 | 262 | 31.0 | 41.0 | 0.00 | 0.00 | 0.00 | 45 | 1010.1 |
| 20260503214554 | 71 | 254 | 6.0 | 12.0 | 0.00 | 0.00 | 0.00 | 28 | 1009.6 |
| 20260503213046 | 73 | 202 | 6.0 | 19.0 | 0.00 | 0.00 | 0.00 | 27 | 1009.8 |
| 20260503211553 | 75 | 248 | 3.0 | 11.0 | 0.00 | 0.00 | 0.00 | 26 | 1010.0 |
| 20260503210045 | 72 | 236 | 3.0 | 9.0 | 0.00 | 0.00 | 0.00 | 27 | 1010.1 |
| 20260503204546 | 69 | 61 | 3.0 | 10.0 | 0.00 | 0.00 | 0.00 | 30 | 1010.5 |
| 20260503203049 | 70 | 329 | 7.0 | 15.0 | 0.00 | 0.00 | 0.00 | 28 | 1010.6 |
| 20260503201548 | 70 | 352 | 6.0 | 12.0 | 0.00 | 0.00 | 0.00 | 29 | 1010.9 |
| 20260503200048 | 70 | 284 | 6.0 | 11.0 | 0.00 | 0.00 | 0.00 | 28 | 1011.3 |
| 20260503194557 | 70 | 220 | 11.0 | 17.0 | 0.00 | 0.00 | 0.00 | 28 | 1011.4 |
| 20260503193044 | 69 | 308 | 5.0 | 15.0 | 0.00 | 0.00 | 0.00 | 29 | 1011.7 |
| 20260503191547 | 69 | 252 | 7.0 | 17.0 | 0.00 | 0.00 | 0.00 | 28 | 1011.8 |
| 20260503190046 | 68 | 227 | 2.0 | 12.0 | 0.00 | 0.00 | 0.00 | 30 | 1012.0 |
| 20260503184548 | 68 | 44 | 4.0 | 10.0 | 0.00 | 0.00 | 0.00 | 33 | 1012.3 |
| 20260503183055 | 67 | 114 | 6.0 | 13.0 | 0.00 | 0.00 | 0.00 | 33 | 1012.5 |
| 20260503181558 | 67 | 50 | 2.0 | 9.0 | 0.00 | 0.00 | 0.00 | 34 | 1012.9 |
| 20260503180050 | 67 | 36 | 3.0 | 7.0 | 0.00 | 0.00 | 0.00 | 32 | 1013.2 |
| 20260503174552 | 69 | 271 | 2.0 | 9.0 | 0.00 | 0.00 | 0.00 | 32 | 1013.6 |